Location: Alta
(39.2070°N, 120.8111°W)
Time: 02:22:50
(UTC+00:00)

ITAMSAT 1 - Pass Details

Date: 08 April 2023
Orbit: 782 x 797 km, 98.8° (Epoch: 29 May)

Event Time Altitude Azimuth Distance (km) Brightness Sun altitude
Exits shadow 03:17:11 - 151° (SSE) 3,191 10.4 -9.2°
Reaches altitude 10° 03:19:19 10° 147° (SSE) 2,354 9.7 -9.6°
Maximum altitude 03:24:21 53° 72° (ENE) 969 7.8 -10.5°
Drops below altitude 10° 03:29:27 10° 356° (N) 2,375 10.4 -11.4°
Sets 03:31:50 0° 352° (N) 3,309 11.3 -11.9°
